Location: Unspecified
(54.1780°N, 0.0000°E)
Time: 11:25:18
(UTC+00:00)

Explorer 7 - Pass Details

Date: 18 June 2019
Orbit: 485 x 680 km, 50.3° (Epoch: 19 July)

Event Time Altitude Azimuth Distance (km) Brightness Sun altitude
Rises 15:00:34 0° 277° (W) 2,976 11.2 44.7°
Reaches altitude 10° 15:03:02 10° 268° (W) 2,084 10.7 44.3°
Maximum altitude 15:07:25 35° 203° (SSW) 1,083 9.4 43.7°
Drops below altitude 10° 15:11:52 10° 139° (SE) 2,116 9.7 43.1°
Sets 15:14:23 0° 130° (SE) 3,027 10.4 42.8°
